Regional Weather Roundup
Issued by NWS Northern Indiana

Home | Current Version | Previous Version | Text Only | Print | Product List | Glossary On
Versions: 1 2 3 4 5 6 7 8 9 10 11 12 13 14 15 16 17 18 19 20 21 22 23 24 25 26 27 28 29 30 31 32 33 34 35 36 37 38 39 40 41 42 43 44 45 46 47 48 49 50
000
ASUS43 KIWX 250110
RWRIWX

KIWX WEATHER ROUNDUP
NATIONAL WEATHER SERVICE NORTHERN INDIANA
900 PM EDT WED MAY 24 2017

NOTE: "FAIR" INDICATES FEW OR NO CLOUDS BELOW 12,000 FEET WITH NO
SIGNIFICANT WEATHER AND/OR OBSTRUCTIONS TO VISIBILITY.

* THESE STATIONS ARE NOT UNDER NWS QUALITY CONTROL. THEY ALSO MAY NOT
  REPORT WEATHER SUCH AS PRECIPITATION OR FOG.

INZ001>027-250200-
NORTHERN INDIANA

CITY           SKY/WX    TMP DP  RH WIND       PRES   REMARKS
GARY*          LGT RAIN  50  48  93 NW12      29.55S
VALPARAISO     LGT RAIN  52  50  93 NW7       29.52F FOG
MICHIGAN CITY* DRIZZLE   50  50 100 CALM      29.53F
LAPORTE*       DRIZZLE   52  51  97 NW5       29.52F
KNOX*          CLOUDY    55  54  94 N9        29.50S
SOUTH BEND     CLOUDY    58  57  97 NE7       29.51F
ELKHART*       LGT RAIN  59  57  94 NE6       29.51S
GOSHEN         LGT RAIN  59  56  89 N9        29.49S
MONTICELLO*    DRIZZLE   57  56  95 N12       29.47S
LOGANSPORT*    DRIZZLE   57  55  94 N7        29.46F
ROCHESTER*     LGT RAIN N/A N/A N/A N6        29.48F
WARSAW*        LGT RAIN  57  55  94 N9        29.47F
ANGOLA*        CLOUDY    57  46  67 NE6       29.48F
FORT WAYNE     RAIN      59  57  93 N13       29.43F FOG
HUNTINGTON*    CLOUDY    58  56  96 N12       29.43F
PERU/GRISSOM   CLOUDY    59  59 100 N9        29.44F
MARION*        CLOUDY    57  55  94 N10       29.43F

$$
INZ028>050-250200-
CENTRAL INDIANA

CITY           SKY/WX    TMP DP  RH WIND       PRES   REMARKS
LAFAYETTE      CLOUDY    58  56  93 N10       29.47S
KOKOMO*        CLOUDY    59  57  93 N13       29.45F
MUNCIE*        LGT RAIN  60  55  83 N13       29.41F
INDIANAPOLIS   CLOUDY    59  55  87 N13       29.43F

$$
MIZ043>046-050>051-056>058-064>065-071>073-077>080-250200-
SOUTHWEST LOWER MICHIGAN

CITY           SKY/WX    TMP DP  RH WIND       PRES   REMARKS
BATTLE CREEK   LGT RAIN  60  58  92 N10       29.53F FOG
BENTON HARBOR  CLOUDY    60  57  89 CALM      29.52S
COLDWATER*     RAIN      58  58 100 N10       29.49F
HILLSDALE*     HVY RAIN  57  55  94 NE8       29.49F
HOLLAND        CLOUDY    61  57  87 NE6       29.55S FOG
GRAND RAPIDS   CLOUDY    60  58  92 NE9       29.55S
KALAMAZOO      LGT RAIN  61  57  87 N8        29.52F FOG
STURGIS*       LGT RAIN  58  56  96 N9        29.49F
THREE RIVERS*  RAIN      59  56  92 CALM      29.51F

$$
OHZ001>008-015>018-024>025-250200-
NORTHWEST OHIO

CITY           SKY/WX    TMP DP  RH WIND       PRES   REMARKS
WAUSEON*       LGT RAIN  59  57  94 NE16G23   29.47S
DEFIANCE       CLOUDY    58  57  97 NE13      29.45S
FINDLAY        CLOUDY    64  58  80 E12       29.42F
TOLEDO EXPRESS CLOUDY    58  58 100 E14       29.46F
TOLEDO METCALF CLOUDY    60  59  96 E10       29.48S
LIMA           CLOUDY    64  60  87 NE10      29.39F

$$
AND FOR LAKE MICHIGAN COASTAL AND OPEN LAKE BUOY OBSERVATIONS

STATION/POSITION TEMP    WIND        PRES    VSBY  WAVE
                 AIR SEA DIR/SP/G                  HT/PER
                 (F)     (DEG/KT/KT) (MB)    (MI)  (FT/S)
CALUMET HARBOR    49     330/ 12/ 17 1000.5S
MICHIGAN CITY     50     280/  5/  6   N/A
BURNS HARBOR      49     320/  8/ 10 1000.7S
SOUTH LAKE BUOY   47 45   20/ 16/ 17 1000.9          4/ 5
4 MI NW BRIDGMAN  56 56  320/  4/  6  999.8          3/ 5
MICHIGAN CITY     50 53  320/  6/ 10   N/A           4/ 5

$$
&&




USA.gov is the U.S. government's official web portal to all federal, state and local government web resources and services.